User: anonymous   Login
Location: Newark
(48.7667°N, 7.9833°E)
Time: 05:28:34
(UTC+00:00)
Language:

LilacSat-2 - Orbit

View from above orbital plane
View from above orbital plane
View from above satellite
View from above satellite

Ground track
Ground track

The orbit data is extracted from the following two-line orbital elements,

1 40908U 15049K   19257.84273242 -.00000005  00000-0  33395-5 0  9990
2 40908  97.4808 256.8912 0014426 257.1448 223.9022 15.13843416220145
Epoch (UTC): 14 September 2019 20:13:32
Eccentricity: 0.0014426
inclination: 97.4808°
perigee height: 514 km
apogee height: 534 km
right ascension of ascending node: 256.8912°
argument of perigee: 257.1448°
revolutions per day: 15.13843416
mean anomaly at epoch: 223.9022°
orbit number at epoch: 22014

The dashed part of the orbit path shows where the satellite is in the earth's shadow,  

DLR